Time,TemperatureF,DewpointF,PressureIn,WindDirection,WindDirectionDegrees,WindSpeedMPH,WindSpeedGustMPH,Humidity,HourlyPrecipIn,Conditions,Clouds,dailyrainin,SolarRadiationWatts/m^2,SoftwareType,DateUTC
2013-08-11 00:02:00,76.0,73.0,-100.00,ESE,110,0.0,4.0,90,0.00,,,0.01,0.000000,,2013-08-11 05:02:00,
2013-08-11 00:18:00,76.0,73.0,-100.00,ESE,110,0.0,4.0,90,0.00,,,0.01,0.000000,,2013-08-11 05:18:00,
2013-08-11 00:25:00,78.0,74.0,-100.00,SSE,156,2.0,4.0,87,0.00,,,0.00,0.000000,,2013-08-11 05:25:00,
2013-08-11 00:57:00,78.0,74.0,-100.00,SSE,156,2.0,4.0,87,0.00,,,0.00,0.000000,,2013-08-11 05:57:00,
2013-08-11 01:04:00,78.0,74.0,-100.00,SSE,156,2.0,4.0,87,0.00,,,0.00,0.000000,,2013-08-11 06:04:00,
2013-08-11 01:17:00,78.0,74.0,-100.00,SSE,156,2.0,4.0,87,0.00,,,0.00,0.000000,,2013-08-11 06:17:00,
2013-08-11 01:57:00,78.0,73.0,-100.00,East,101,1.0,6.0,84,0.00,,,0.00,0.000000,,2013-08-11 06:57:00,
2013-08-11 02:06:00,78.0,73.0,-100.00,East,101,1.0,6.0,84,0.00,,,0.00,0.000000,,2013-08-11 07:06:00,
2013-08-11 02:24:00,78.0,73.0,-100.00,East,101,1.0,6.0,84,0.00,,,0.00,0.000000,,2013-08-11 07:24:00,
2013-08-11 02:25:00,76.0,73.0,-100.00,North,355,0.0,2.0,90,0.00,,,0.00,0.000000,,2013-08-11 07:25:00,
2013-08-11 02:56:00,76.0,73.0,-100.00,North,355,0.0,2.0,90,0.00,,,0.00,0.000000,,2013-08-11 07:56:00,
2013-08-11 03:09:00,76.0,73.0,-100.00,North,355,0.0,2.0,90,0.00,,,0.00,0.000000,,2013-08-11 08:09:00,
2013-08-11 03:17:00,76.0,73.0,-100.00,North,355,0.0,2.0,90,0.00,,,0.00,0.000000,,2013-08-11 08:17:00,
2013-08-11 03:25:00,76.0,73.0,-100.00,North,5,0.0,0.0,91,0.00,,,-99.99,0.000000,,2013-08-11 08:25:00,
2013-08-11 03:59:00,76.0,73.0,-100.00,North,5,0.0,0.0,91,0.00,,,-99.99,0.000000,,2013-08-11 08:59:00,
2013-08-11 04:07:00,76.0,73.0,-100.00,North,5,0.0,0.0,91,0.00,,,-99.99,0.000000,,2013-08-11 09:07:00,
2013-08-11 04:15:00,76.0,73.0,-100.00,North,5,0.0,0.0,91,0.00,,,-99.99,0.000000,,2013-08-11 09:15:00,
2013-08-11 04:25:00,76.0,74.0,-100.00,East,90,0.0,0.0,92,0.00,,,0.00,0.000000,,2013-08-11 09:25:00,
2013-08-11 05:01:00,76.0,74.0,-100.00,East,90,0.0,0.0,92,0.00,,,0.00,0.000000,,2013-08-11 10:01:00,
2013-08-11 05:14:00,76.0,74.0,-100.00,East,90,0.0,0.0,92,0.00,,,0.00,0.000000,,2013-08-11 10:14:00,
2013-08-11 05:57:00,76.0,74.0,-100.00,NE,55,0.0,7.0,92,0.04,,,0.04,0.000000,,2013-08-11 10:57:00,
2013-08-11 06:06:00,76.0,74.0,-100.00,NE,55,0.0,7.0,92,0.04,,,0.04,0.000000,,2013-08-11 11:06:00,
2013-08-11 06:14:00,76.0,74.0,-100.00,NE,55,0.0,7.0,92,0.04,,,0.04,0.000000,,2013-08-11 11:14:00,
2013-08-11 06:24:00,76.0,74.0,-100.00,NE,55,0.0,7.0,92,0.04,,,0.04,0.000000,,2013-08-11 11:24:00,
2013-08-11 07:00:00,75.0,73.0,-100.00,WNW,294,0.0,2.0,93,0.00,,,-99.99,3.000000,,2013-08-11 12:00:00,
2013-08-11 07:06:00,75.0,73.0,-100.00,WNW,294,0.0,2.0,93,0.00,,,-99.99,3.000000,,2013-08-11 12:06:00,
2013-08-11 07:15:00,75.0,73.0,-100.00,WNW,294,0.0,2.0,93,0.00,,,-99.99,3.000000,,2013-08-11 12:15:00,
2013-08-11 07:25:00,80.0,77.0,-100.00,ESE,108,1.0,2.0,90,0.01,,,-99.99,93.000000,,2013-08-11 12:25:00,
2013-08-11 07:56:00,80.0,77.0,-100.00,ESE,108,1.0,2.0,90,0.01,,,-99.99,93.000000,,2013-08-11 12:56:00,
2013-08-11 08:06:00,80.0,77.0,-100.00,ESE,108,1.0,2.0,90,0.01,,,-99.99,93.000000,,2013-08-11 13:06:00,
2013-08-11 08:16:00,80.0,77.0,-100.00,ESE,108,1.0,2.0,90,0.01,,,-99.99,93.000000,,2013-08-11 13:16:00,
2013-08-11 09:04:00,88.0,76.0,-100.00,East,84,3.0,4.0,67,0.00,,,0.05,318.000000,,2013-08-11 14:04:00,
2013-08-11 09:24:00,88.0,76.0,-100.00,East,84,3.0,4.0,67,0.00,,,0.05,318.000000,,2013-08-11 14:24:00,
2013-08-11 09:57:00,88.0,72.0,-100.00,SSE,154,5.0,10.0,60,0.00,,,0.05,508.000000,,2013-08-11 14:57:00,
2013-08-11 10:07:00,88.0,72.0,-100.00,SSE,154,5.0,10.0,60,0.00,,,0.05,508.000000,,2013-08-11 15:07:00,
2013-08-11 10:14:00,88.0,72.0,-100.00,SSE,154,5.0,10.0,60,0.00,,,0.05,508.000000,,2013-08-11 15:14:00,
2013-08-11 10:24:00,88.0,72.0,-100.00,SSE,154,5.0,10.0,60,0.00,,,0.05,508.000000,,2013-08-11 15:24:00,
2013-08-11 11:08:00,88.0,73.0,-100.00,SSE,149,6.0,12.0,61,0.00,,,0.05,615.000000,,2013-08-11 16:08:00,
2013-08-11 11:14:00,88.0,73.0,-100.00,SSE,149,6.0,12.0,61,0.00,,,0.05,615.000000,,2013-08-11 16:14:00,
2013-08-11 11:25:00,89.0,73.0,-100.00,SSE,161,6.0,14.0,60,0.00,,,0.05,872.000000,,2013-08-11 16:25:00,
2013-08-11 11:58:00,89.0,73.0,-100.00,SSE,161,6.0,14.0,60,0.00,,,0.05,872.000000,,2013-08-11 16:58:00,
2013-08-11 12:08:00,89.0,73.0,-100.00,SSE,161,6.0,14.0,60,0.00,,,0.05,872.000000,,2013-08-11 17:08:00,
2013-08-11 12:13:00,89.0,73.0,-100.00,SSE,161,6.0,14.0,60,0.00,,,0.05,872.000000,,2013-08-11 17:13:00,
2013-08-11 12:58:00,90.0,72.0,-100.00,SSE,150,7.0,13.0,56,0.00,,,0.05,1091.000000,,2013-08-11 17:58:00,
2013-08-11 13:06:00,90.0,72.0,-100.00,SSE,150,7.0,13.0,56,0.00,,,0.05,1091.000000,,2013-08-11 18:06:00,
2013-08-11 13:17:00,90.0,72.0,-100.00,SSE,150,7.0,13.0,56,0.00,,,0.05,1091.000000,,2013-08-11 18:17:00,
2013-08-11 13:25:00,91.0,74.0,-100.00,SE,139,5.0,14.0,57,0.00,,,0.05,1141.000000,,2013-08-11 18:25:00,
2013-08-11 13:57:00,91.0,74.0,-100.00,SE,139,5.0,14.0,57,0.00,,,0.05,1141.000000,,2013-08-11 18:57:00,
2013-08-11 14:07:00,91.0,74.0,-100.00,SE,139,5.0,14.0,57,0.00,,,0.05,1141.000000,,2013-08-11 19:07:00,
2013-08-11 14:16:00,91.0,74.0,-100.00,SE,139,5.0,14.0,57,0.00,,,0.05,1141.000000,,2013-08-11 19:16:00,
2013-08-11 14:25:00,91.0,73.0,-100.00,SSE,156,6.0,13.0,56,0.00,,,0.05,989.000000,,2013-08-11 19:25:00,
2013-08-11 15:00:00,91.0,73.0,-100.00,SSE,156,6.0,13.0,56,0.00,,,0.05,989.000000,,2013-08-11 20:00:00,
2013-08-11 15:06:00,91.0,73.0,-100.00,SSE,156,6.0,13.0,56,0.00,,,0.05,989.000000,,2013-08-11 20:06:00,
2013-08-11 15:18:00,91.0,73.0,-100.00,SSE,156,6.0,13.0,56,0.00,,,0.05,989.000000,,2013-08-11 20:18:00,
2013-08-11 15:25:00,91.0,74.0,-100.00,SE,145,7.0,13.0,57,0.00,,,0.05,873.000000,,2013-08-11 20:25:00,
2013-08-11 16:07:00,91.0,74.0,-100.00,SE,145,7.0,13.0,57,0.00,,,0.05,873.000000,,2013-08-11 21:07:00,
2013-08-11 16:13:00,91.0,74.0,-100.00,SE,145,7.0,13.0,57,0.00,,,0.05,873.000000,,2013-08-11 21:13:00,
2013-08-11 16:25:00,87.0,75.0,-100.00,SSE,156,6.0,14.0,67,0.00,,,0.05,434.000000,,2013-08-11 21:25:00,
2013-08-11 16:59:00,87.0,75.0,-100.00,SSE,156,6.0,14.0,67,0.00,,,0.05,434.000000,,2013-08-11 21:59:00,
2013-08-11 17:04:00,87.0,75.0,-100.00,SSE,156,6.0,14.0,67,0.00,,,0.05,434.000000,,2013-08-11 22:04:00,
2013-08-11 17:25:00,87.0,75.0,-100.00,SE,146,5.0,14.0,67,0.00,,,0.05,384.000000,,2013-08-11 22:25:00,
2013-08-11 17:58:00,87.0,75.0,-100.00,SE,146,5.0,14.0,67,0.00,,,0.05,384.000000,,2013-08-11 22:58:00,
2013-08-11 18:04:00,87.0,75.0,-100.00,SE,146,5.0,14.0,67,0.00,,,0.05,384.000000,,2013-08-11 23:04:00,
2013-08-11 18:16:00,87.0,75.0,-100.00,SE,146,5.0,14.0,67,0.00,,,0.05,384.000000,,2013-08-11 23:16:00,
2013-08-11 18:57:00,86.0,74.0,-100.00,SSE,152,6.0,11.0,68,0.00,,,0.05,225.000000,,2013-08-11 23:57:00,
2013-08-11 19:05:00,86.0,74.0,-100.00,SSE,152,6.0,11.0,68,0.00,,,0.05,225.000000,,2013-08-12 00:05:00,
2013-08-11 19:16:00,86.0,74.0,-100.00,SSE,152,6.0,11.0,68,0.00,,,0.05,225.000000,,2013-08-12 00:16:00,
2013-08-11 19:59:00,84.0,74.0,-100.00,SSE,158,4.0,13.0,73,0.00,,,0.05,76.000000,,2013-08-12 00:59:00,
2013-08-11 20:06:00,84.0,74.0,-100.00,SSE,158,4.0,13.0,73,0.00,,,0.05,76.000000,,2013-08-12 01:06:00,
2013-08-11 20:14:00,84.0,74.0,-100.00,SSE,158,4.0,13.0,73,0.00,,,0.05,76.000000,,2013-08-12 01:14:00,
2013-08-11 20:56:00,81.0,74.0,-100.00,SE,137,1.0,7.0,80,0.00,,,0.05,4.000000,,2013-08-12 01:56:00,
2013-08-11 21:07:00,81.0,74.0,-100.00,SE,137,1.0,7.0,80,0.00,,,0.05,4.000000,,2013-08-12 02:07:00,
2013-08-11 21:14:00,81.0,74.0,-100.00,SE,137,1.0,7.0,80,0.00,,,0.05,4.000000,,2013-08-12 02:14:00,
2013-08-11 21:25:00,81.0,75.0,-100.00,South,172,3.0,5.0,81,0.00,,,0.05,0.000000,,2013-08-12 02:25:00,
2013-08-11 22:00:00,81.0,75.0,-100.00,South,172,3.0,5.0,81,0.00,,,0.05,0.000000,,2013-08-12 03:00:00,
2013-08-11 22:14:00,81.0,75.0,-100.00,South,172,3.0,5.0,81,0.00,,,0.05,0.000000,,2013-08-12 03:14:00,
2013-08-11 23:00:00,81.0,75.0,-100.00,South,176,2.0,6.0,82,0.00,,,0.05,0.000000,,2013-08-12 04:00:00,
2013-08-11 23:02:00,81.0,75.0,-100.00,South,176,2.0,6.0,82,0.00,,,0.05,0.000000,,2013-08-12 04:02:00,
2013-08-11 23:12:00,81.0,75.0,-100.00,South,176,2.0,6.0,82,0.00,,,0.05,0.000000,,2013-08-12 04:12:00,
2013-08-11 23:22:00,81.0,75.0,-100.00,South,176,2.0,6.0,82,0.00,,,0.05,0.000000,,2013-08-12 04:22:00,
2013-08-11 23:52:00,79.0,75.0,-100.00,South,169,2.0,4.0,88,0.00,,,0.05,0.000000,,2013-08-12 04:52:00,